Location: Beneden-Haastrecht
(52.0012°N, 4.7557°E)
Time: 02:56:19
(UTC+00:00)

S3M - Pass Details

Date: 24 October 2020
Orbit: 950 x 1003 km, 83.0° (Epoch: 27 November)

Event Time Altitude Azimuth Distance (km) Brightness Sun altitude
Rises 18:36:16 0° 179° (S) 3,611 6.9 -20.4°
Reaches altitude 10° 18:38:45 10° 177° (S) 2,671 6.2 -20.8°
Maximum altitude 18:44:48 69° 95° (E) 1,022 3.8 -21.7°
Drops below altitude 10° 18:50:56 10° 14° (NNE) 2,709 6.3 -22.7°
Sets 18:53:28 0° 12° (NNE) 3,666 7.0 -23.1°
